Starlink 32952

operational
NORAD ID: 63146 Int'l Des: 2025-043 Owner: SPXS Country: US Constellation: starlink
LEOCIRCULAR

关于 Starlink 32952

正在加载描述...

实时位置

正在加载3D地球...

即将过境

高度历史

Altitude vs Time

uPlot chart will show altitude changes over time

两行轨道根数

1 63146U 25043Q 25258.38888007 .00037528 00000-0 13641-2 0 9990
2 63146 42.9995 293.0362 0000545 134.5463 225.5434 15.27633309 31104
Epoch: Sep 15, 2025 • Age: 17 hours

当前状态

高度 483.0 km
速度 7.63 km/s
星下点 -4.85°S, 91.48°E
发射日期 Mar 3, 2025
运行时间 0.5 years
类型 internet

技术详情

分类 Payload
质量 730.00 kg
干质量 700.00 kg
总质量 730.00 kg
长度 0.30 m
直径 4.10 m
跨度 29.00 m
形状 Box + pan
制造商 SPXS
平台类型 Starlink V2M
阶段状态 In Orbit
所有者/国家 SPXS/US

大型星座

Loading constellations...